Location: Canyon Rim
(40.8777°N, 111.8641°W)
Time: 00:57:18
(UTC+00:00)

Envisat - Visible Passes

Search period start: 20 April 2021 00:00
Search period end: 30 April 2021 00:00
Orbit: 764 x 766 km, 98.1° (Epoch: 19 April)

Date Brightness Start Highest point End Pass type
(mag) Time Alt. Az. Time Alt. Az. Time Alt. Az.
20 Apr 5.7 11:59:27 10° NE 12:03:14 21° E 12:07:00 10° SE visible
23 Apr 5.8 11:48:33 10° NE 11:51:41 16° E 11:54:48 10° SE visible
26 Apr 6.0 11:37:58 10° ENE 11:40:06 13° E 11:42:14 10° ESE visible
